FENGYUN 1C DEB, 36283

Orbit data source: Space-Track

FENGYUN 1C DEB, 36283 is space debris in SSO originally from a launch on Mon, 10 May 1999 UTC launched from the Taiyaun Space Center, China (TSC). Fengyun 1C debris stems from the Chinese weather satellite Fengyun-1C, which was intentionally destroyed by a Chinese anti-satellite missile in 2007. This event dramatically increased the amount of space debris, with thousands of trackable fragments posing hazards to satellites and human spaceflight. The Fengyun 1C debris cloud has become a focal point in discussions about space sustainability and the need for international regulations to prevent the creation of new debris.

Loading next visibility...
Identifier
36283, 1999-025DXL
Orbit
SSO
Country
Flag of CNCN / PRC
Related business
Manufacturer
Unknown
Mission
Spacecraft
Bus & Motor
Unknown
Mass
Unknown
Launch date (UTC)
1999-05-10 (27 years ago)
Launch vehicle
Unknown
Launch site
Taiyaun Space Center, China (TSC)
Object type
Payload
Rocket body
Debris
Shape & HBR
Unknown shape, 0.1 m
Radar Cross Section
Small (<0.1 m²)

Expand to show TLE details & history
Last TLE update: 6 days ago

TLE from 6 days ago
0 FENGYUN 1C DEB
1 36283U 99025DXL 26056.17386946  .00022794  00000-0  12995-2 0  9992
2 36283  99.4273  43.0945 0059174 165.3437 194.9519 15.11307044677888
Epoch: 2026-02-25T04:10Z
TLE epoch observation values (Epoch: 2026-02-25T04:10:22.321Z)
Latitude
-0.00011°
Longitude
-174.54132°
Altitude
574.758 km
Speed
7.552 km/s
True Right ascension
02h 52m 22s
True Declination
0° 00' 00"
Sunlit
Object was in daylight at epoch
Visualization orbit readout
Latitude
Unknown
Longitude
Unknown
Altitude
Unknown
Speed
Unknown
Apparent Right ascension
Unknown
Apparent Declination
Unknown
Sunlit
N/A
Visualization observer readout
Local Sidereal Time
18:32:21
Azimuth
Unknown
Elevation
Unknown
Doppler factor
Unknown
Orbital elements
Apogee altitude
570.162 km
Perigee altitude
488.414 km
Semi-major axis
6,907.425 km
Eccentricity
0.00592
Inclination
99.4273°
RAAN
43.0945°
Arg. of periapsis
165.3437°
True anomaly
194.77819°
Mean anomaly
194.9519°
Eccentric anomaly
194.86492°
Mean motion
3.78067 °/min
Orbital period
95.22 mins
BSTAR
0.0012995
Loading maneuver chart data...
Computing Atmospheric mass density...
Loading historical data...
Loading historical data...
Loading historical data...
Loading historical data...
Loading historical data...
Loading historical data...
Loading historical data...

Documentation

Showing up to 5 results
|